Location: *
(37.5724°S, 58.0067°E)
Time: 10:44:07
(UTC+00:00)

Lacrosse 5 - Pass Details

Date: 24 January 2021
Orbit: 715 x 724 km, 57.0° (Epoch: 22 February)

Event Time Altitude Azimuth Distance (km) Brightness Sun altitude
Exits shadow 18:04:25 28° 118° (ESE) 1,369 3.2 -25.0°
Drops below altitude 10° 18:06:54 10° 129° (SE) 2,237 4.4 -25.3°
Sets 18:09:21 0° 134° (SE) 3,165 5.3 -25.6°
